When you browse on this site, cookies collect data to enhance your experience and personalize the content and advertising you see.
Visit our Privacy Policy to learn more. By continuing to use the site, you agree to this use of cookies and data.

Hourly Weather Kolosovo

Today, 5 August, Wednesday

Time Temperature Precipitation Wind Pressure Humidity
00:00 +16°C° 0 mm 2 mps 747 mmHg 91%
01:00 +15°C° 0 mm 2 mps 747 mmHg 90%
02:00 +15°C° 0 mm 2 mps 747 mmHg 90%
03:00 +14°C° 0 mm 3 mps 747 mmHg 89%
04:00 +14°C° 0 mm 3 mps 747 mmHg 88%
05:00 +16°C° 0 mm 3 mps 747 mmHg 86%
06:00 +17°C° 0 mm 3 mps 747 mmHg 82%
07:00 +18°C° 0 mm 4 mps 747 mmHg 77%
08:00 +20°C° 0 mm 4 mps 747 mmHg 72%
09:00 +21°C° 0 mm 4 mps 747 mmHg 68%
10:00 +23°C° 0 mm 4 mps 747 mmHg 64%
11:00 +25°C° 0 mm 4 mps 747 mmHg 60%
12:00 +25°C° 0 mm 4 mps 747 mmHg 62%
13:00 +25°C° 0 mm 4 mps 747 mmHg 63%
14:00 +25°C° 0 mm 3 mps 748 mmHg 65%
15:00 +25°C° 0 mm 3 mps 747 mmHg 66%
16:00 +26°C° 0 mm 3 mps 747 mmHg 67%
17:00 +26°C° 0 mm 2 mps 747 mmHg 68%
18:00 +24°C° 0 mm 2 mps 747 mmHg 74%
19:00 +23°C° 0 mm 2 mps 748 mmHg 80%
20:00 +20°C° 0 mm 2 mps 748 mmHg 86%
21:00 +21°C° 0 mm 1 mps 748 mmHg 87%
22:00 +20°C° 0 mm 1 mps 748 mmHg 89%
23:00 +19°C° 0 mm 1 mps 748 mmHg 91%

Tomorrow, 6 August, Thursday

Time Temperature Precipitation Wind Pressure Humidity
00:00 +19°C° 0 mm 1 mps 748 mmHg 92%
01:00 +19°C° 0 mm 1 mps 748 mmHg 93%
02:00 +18°C° 0 mm 1 mps 748 mmHg 94%
03:00 +18°C° 0.5 mm 1 mps 749 mmHg 95%
04:00 +18°C° 0.5 mm 1 mps 749 mmHg 96%
05:00 +18°C° 0.5 mm 1 mps 749 mmHg 97%
06:00 +18°C° 0.3 mm 2 mps 749 mmHg 96%
07:00 +19°C° 0.3 mm 2 mps 749 mmHg 94%
08:00 +20°C° 0.3 mm 2 mps 750 mmHg 93%
09:00 +21°C° 0.2 mm 2 mps 750 mmHg 85%
10:00 +22°C° 0.2 mm 3 mps 750 mmHg 77%
11:00 +24°C° 0.2 mm 3 mps 750 mmHg 69%
12:00 +25°C° 0 mm 3 mps 750 mmHg 62%
13:00 +25°C° 0 mm 3 mps 750 mmHg 55%
14:00 +26°C° 0 mm 4 mps 750 mmHg 48%
15:00 +25°C° 0 mm 3 mps 750 mmHg 52%
16:00 +25°C° 0 mm 3 mps 750 mmHg 56%
17:00 +24°C° 0 mm 2 mps 750 mmHg 60%
18:00 +21°C° 0 mm 2 mps 751 mmHg 66%
19:00 +19°C° 0 mm 2 mps 751 mmHg 72%
20:00 +17°C° 0 mm 2 mps 751 mmHg 78%
21:00 +17°C° 0 mm 2 mps 751 mmHg 80%
22:00 +16°C° 0 mm 2 mps 752 mmHg 82%
23:00 +15°C° 0 mm 2 mps 752 mmHg 84%

Day after tomorrow, 7 August, Friday

Time Temperature Precipitation Wind Pressure Humidity
00:00 +15°C° 0 mm 2 mps 752 mmHg 86%
01:00 +14°C° 0 mm 2 mps 752 mmHg 87%
02:00 +14°C° 0 mm 2 mps 752 mmHg 89%
03:00 +14°C° 0 mm 2 mps 753 mmHg 89%
04:00 +14°C° 0 mm 2 mps 753 mmHg 88%
05:00 +14°C° 0 mm 1 mps 753 mmHg 88%
06:00 +16°C° 0 mm 2 mps 753 mmHg 81%
07:00 +18°C° 0 mm 2 mps 753 mmHg 73%
08:00 +20°C° 0 mm 2 mps 753 mmHg 66%
09:00 +21°C° 0 mm 2 mps 753 mmHg 61%
10:00 +23°C° 0 mm 2 mps 754 mmHg 57%
11:00 +24°C° 0 mm 2 mps 754 mmHg 52%
12:00 +25°C° 0 mm 2 mps 753 mmHg 53%
13:00 +25°C° 0 mm 2 mps 753 mmHg 53%
14:00 +25°C° 0 mm 2 mps 753 mmHg 53%
15:00 +25°C° 0.1 mm 2 mps 753 mmHg 57%
16:00 +24°C° 0.1 mm 2 mps 753 mmHg 62%
17:00 +24°C° 0.1 mm 1 mps 753 mmHg 66%
18:00 +22°C° 0.1 mm 1 mps 753 mmHg 73%
19:00 +20°C° 0.1 mm 1 mps 753 mmHg 81%
20:00 +18°C° 0.1 mm 1 mps 753 mmHg 88%
21:00 +18°C° 0 mm 1 mps 753 mmHg 90%
22:00 +16°C° 0 mm 1 mps 753 mmHg 91%
23:00 +15°C° 0 mm 1 mps 753 mmHg 93%

8 August, Saturday

Time Temperature Precipitation Wind Pressure Humidity
00:00 +15°C° 0 mm 1 mps 753 mmHg 93%
01:00 +15°C° 0 mm 1 mps 753 mmHg 93%
02:00 +13°C° 0 mm 0 mps 753 mmHg 94%
03:00 +15°C° 0 mm 1 mps 753 mmHg 93%
04:00 +15°C° 0 mm 1 mps 753 mmHg 93%
05:00 +15°C° 0 mm 1 mps 753 mmHg 93%
06:00 +18°C° 0 mm 1 mps 753 mmHg 87%
07:00 +20°C° 0 mm 1 mps 752 mmHg 80%
08:00 +22°C° 0 mm 1 mps 752 mmHg 74%
09:00 +23°C° 0.2 mm 1 mps 752 mmHg 69%
10:00 +24°C° 0.2 mm 1 mps 752 mmHg 65%
11:00 +25°C° 0.2 mm 1 mps 752 mmHg 60%
12:00 +26°C° 0.2 mm 1 mps 751 mmHg 59%
13:00 +26°C° 0.2 mm 1 mps 751 mmHg 58%
14:00 +26°C° 0.2 mm 1 mps 750 mmHg 57%
15:00 +25°C° 0.2 mm 1 mps 750 mmHg 62%
16:00 +25°C° 0.2 mm 1 mps 750 mmHg 68%
17:00 +24°C° 0.2 mm 1 mps 749 mmHg 74%
18:00 +22°C° 0.1 mm 1 mps 749 mmHg 79%
19:00 +21°C° 0.1 mm 1 mps 749 mmHg 84%
20:00 +19°C° 0.1 mm 1 mps 749 mmHg 90%
21:00 +18°C° 0 mm 1 mps 748 mmHg 91%
22:00 +18°C° 0 mm 1 mps 748 mmHg 93%
23:00 +16°C° 0 mm 1 mps 748 mmHg 95%

9 August, Sunday

Time Temperature Precipitation Wind Pressure Humidity
00:00 +16°C° 0 mm 1 mps 748 mmHg 96%
01:00 +15°C° 0 mm 1 mps 748 mmHg 96%
02:00 +15°C° 0 mm 1 mps 748 mmHg 97%
03:00 +15°C° 0 mm 1 mps 747 mmHg 97%
04:00 +15°C° 0 mm 1 mps 747 mmHg 97%
05:00 +15°C° 0 mm 1 mps 747 mmHg 97%
06:00 +16°C° 0 mm 1 mps 747 mmHg 91%
07:00 +19°C° 0 mm 1 mps 747 mmHg 86%
08:00 +20°C° 0 mm 1 mps 747 mmHg 80%
09:00 +21°C° 0 mm 2 mps 747 mmHg 71%
10:00 +23°C° 0 mm 2 mps 747 mmHg 63%
11:00 +25°C° 0 mm 2 mps 747 mmHg 54%
12:00 +25°C° 0 mm 2 mps 747 mmHg 55%
13:00 +25°C° 0 mm 2 mps 746 mmHg 55%
14:00 +25°C° 0 mm 2 mps 746 mmHg 56%
15:00 +25°C° 0.1 mm 2 mps 746 mmHg 59%
16:00 +24°C° 0.1 mm 2 mps 746 mmHg 62%
17:00 +24°C° 0.1 mm 1 mps 746 mmHg 65%
18:00 +22°C° 0 mm 1 mps 745 mmHg 72%
19:00 +20°C° 0 mm 1 mps 745 mmHg 78%
20:00 +18°C° 0 mm 1 mps 745 mmHg 84%
21:00 +16°C° 0 mm 1 mps 745 mmHg 86%
22:00 +16°C° 0 mm 1 mps 745 mmHg 88%
23:00 +15°C° 0 mm 1 mps 745 mmHg 90%

10 August, Monday

Time Temperature Precipitation Wind Pressure Humidity
00:00 +15°C° 0 mm 1 mps 745 mmHg 92%
01:00 +14°C° 0 mm 2 mps 745 mmHg 93%
02:00 +14°C° 0 mm 2 mps 745 mmHg 95%
03:00 +13°C° 0 mm 2 mps 745 mmHg 95%
04:00 +13°C° 0 mm 2 mps 745 mmHg 95%
05:00 +13°C° 0 mm 2 mps 745 mmHg 96%
06:00 +15°C° 0 mm 2 mps 745 mmHg 88%
07:00 +16°C° 0 mm 2 mps 746 mmHg 80%
08:00 +18°C° 0 mm 2 mps 746 mmHg 72%
09:00 +19°C° 0 mm 2 mps 746 mmHg 66%
10:00 +20°C° 0 mm 2 mps 746 mmHg 60%
11:00 +21°C° 0 mm 2 mps 746 mmHg 54%
12:00 +23°C° 0 mm 2 mps 746 mmHg 52%
13:00 +22°C° 0 mm 3 mps 746 mmHg 50%
14:00 +22°C° 0 mm 3 mps 746 mmHg 49%
15:00 +23°C° 0 mm 2 mps 746 mmHg 53%
16:00 +23°C° 0 mm 2 mps 746 mmHg 56%
17:00 +23°C° 0 mm 2 mps 746 mmHg 60%
18:00 +20°C° 0 mm 2 mps 746 mmHg 67%
19:00 +19°C° 0 mm 1 mps 746 mmHg 74%
20:00 +16°C° 0 mm 1 mps 746 mmHg 80%
21:00 +16°C° 0 mm 1 mps 746 mmHg 82%
22:00 +15°C° 0 mm 1 mps 746 mmHg 84%
23:00 +15°C° 0 mm 1 mps 746 mmHg 85%
Show more